TimeEDT,TemperatureF,Dew PointF,Humidity,Sea Level PressureIn,VisibilityMPH,Wind Direction,Wind SpeedMPH,Gust SpeedMPH,PrecipitationIn,Events,Conditions,WindDirDegrees,DateUTC
12:12 AM,64.9,61.0,87,29.92,10.0,ENE,5.8,-,N/A,,Overcast,70,2013-07-23 04:12:00
12:51 AM,64.9,61.0,87,29.91,10.0,ENE,4.6,-,N/A,,Overcast,60,2013-07-23 04:51:00
1:51 AM,64.9,61.0,87,29.89,10.0,NNE,4.6,-,N/A,,Overcast,30,2013-07-23 05:51:00
2:03 AM,64.9,61.0,87,29.88,10.0,NE,5.8,-,N/A,,Overcast,40,2013-07-23 06:03:00
2:16 AM,64.9,61.0,87,29.88,10.0,NE,4.6,-,N/A,,Overcast,40,2013-07-23 06:16:00
2:51 AM,64.9,62.1,90,29.87,10.0,NNE,4.6,-,0.00,,Overcast,30,2013-07-23 06:51:00
3:51 AM,63.0,62.1,97,29.84,6.0,NE,4.6,-,0.00,Rain,Light Rain,40,2013-07-23 07:51:00
4:51 AM,63.0,62.1,97,29.81,5.0,NE,5.8,-,0.01,Rain,Light Rain,40,2013-07-23 08:51:00
5:13 AM,63.0,62.1,97,29.81,2.0,NE,6.9,-,0.01,Rain,Light Rain,40,2013-07-23 09:13:00
5:44 AM,63.0,63.0,100,29.80,1.0,ENE,8.1,-,0.05,Rain,Light Rain,60,2013-07-23 09:44:00
5:51 AM,63.0,63.0,100,29.80,1.0,ENE,11.5,-,0.07,Rain,Rain,60,2013-07-23 09:51:00
6:51 AM,63.0,62.1,97,29.77,2.0,ENE,9.2,-,0.12,Rain,Light Rain,70,2013-07-23 10:51:00
7:51 AM,63.0,62.1,97,29.76,3.0,East,6.9,-,0.05,Rain,Light Rain,80,2013-07-23 11:51:00
8:51 AM,64.0,63.0,96,29.73,3.0,East,5.8,-,0.06,Rain,Light Rain,80,2013-07-23 12:51:00
9:51 AM,64.0,63.0,96,29.71,4.0,NW,5.8,-,0.08,Rain,Light Rain,320,2013-07-23 13:51:00
9:52 AM,64.0,63.0,96,29.71,2.0,NW,5.8,-,0.00,Rain,Rain,320,2013-07-23 13:52:00
9:53 AM,64.0,63.0,96,29.71,1.0,NW,4.6,-,0.01,Rain,Heavy Rain,320,2013-07-23 13:53:00
10:18 AM,64.0,63.0,96,29.68,3.0,North,6.9,-,0.24,Rain,Light Rain,360,2013-07-23 14:18:00
10:51 AM,64.9,63.0,93,29.68,4.0,North,6.9,-,0.25,Rain,Rain,350,2013-07-23 14:51:00
10:58 AM,64.0,63.0,96,29.67,2.0,North,8.1,-,0.04,Rain,Heavy Rain,350,2013-07-23 14:58:00
11:51 AM,64.9,63.0,93,29.66,6.0,North,6.9,-,0.23,,Light Drizzle,350,2013-07-23 15:51:00
12:51 PM,66.0,64.0,93,29.63,2.0,Variable,3.5,-,0.06,Rain,Rain,0,2013-07-23 16:51:00
1:51 PM,66.9,64.9,93,29.60,6.0,Calm,Calm,-,0.01,,Overcast,0,2013-07-23 17:51:00
1:52 PM,66.9,64.9,93,29.61,4.0,North,3.5,-,N/A,,Overcast,350,2013-07-23 17:52:00
2:51 PM,69.1,66.0,90,29.59,10.0,NNW,6.9,-,0.00,,Overcast,340,2013-07-23 18:51:00
3:51 PM,68.0,66.0,93,29.57,5.0,North,6.9,-,0.00,Rain,Light Rain,350,2013-07-23 19:51:00
4:51 PM,69.1,66.0,90,29.57,10.0,North,5.8,-,0.00,,Overcast,360,2013-07-23 20:51:00
5:51 PM,69.1,66.0,90,29.56,10.0,North,5.8,-,N/A,,Overcast,360,2013-07-23 21:51:00
6:12 PM,69.1,66.0,90,29.55,10.0,North,6.9,-,N/A,,Overcast,360,2013-07-23 22:12:00
6:24 PM,69.1,66.0,90,29.56,10.0,North,6.9,-,N/A,,Overcast,360,2013-07-23 22:24:00
6:51 PM,69.1,66.0,90,29.56,10.0,North,6.9,-,N/A,,Overcast,360,2013-07-23 22:51:00
7:51 PM,69.1,66.0,90,29.57,10.0,WNW,6.9,-,N/A,,Overcast,290,2013-07-23 23:51:00
8:03 PM,69.1,66.0,90,29.57,10.0,WNW,6.9,-,N/A,,Overcast,300,2013-07-24 00:03:00
8:51 PM,69.1,66.0,90,29.58,10.0,West,4.6,-,N/A,,Overcast,270,2013-07-24 00:51:00
9:46 PM,68.0,64.4,88,29.58,10.0,West,4.6,-,N/A,,Scattered Clouds,270,2013-07-24 01:46:00
9:51 PM,66.9,64.9,93,29.58,10.0,West,4.6,-,N/A,,Partly Cloudy,260,2013-07-24 01:51:00
10:51 PM,66.9,64.9,93,29.58,10.0,Calm,Calm,-,N/A,,Clear,0,2013-07-24 02:51:00
11:51 PM,64.9,64.0,97,29.59,10.0,Calm,Calm,-,N/A,,Clear,0,2013-07-24 03:51:00